DECAYED

STARLINK-30232, 57303 (Decayed)

Orbit data source: Space-Track

STARLINK-30232, 57303 was a payload satellite owned by SpaceX/Seattle (US) in LEO that was launched on Mon, 10 Jul 2023 UTC via an FALCON 9 launch vehicle from the Air Force Eastern Test Range (AFETR). Payload-class satellites include a variety of spacecraft equipped with specific instruments for various scientific and technological missions. These include communications satellites like Starlink; space stations such as the ISS; scientific satellites like the Hubble; Earth observation satellites from companies like Planet Labs, Umbra, and HawkEye 360; GPS; miniature CubeSats for education and research; and military/defense satellites.

Not visible in the next 10 days
Identifier
57303, 2023-096P
Orbit
Decayed
Country
Flag of USUS
Related business
Manufacturer
SpaceX/Seattle
Mission
Decayed Commercial Communications
Bus & Motor
STARLINK V2M, Unknown motor
Mass
730 kg wet, ~700 kg dry
Launch date (UTC)
2023-07-10 (3 years ago)
Launch vehicle
FALCON 9
Launch site
Air Force Eastern Test Range (AFETR)
Object type
Payload
Rocket body
Debris
Shape & HBR
Box + 2 Pan, 17.7 m
Radar Cross Section
33.884 m², Large (>1 m²)

Expand to show TLE details & history
Last TLE update: 6 months ago

TLE from 6 months ago
0 STARLINK-30232
1 57303U 23096P   26066.40287806  .13401058  92553-5  23127-2 0  9991
2 57303  42.9626 149.1311 0011530  36.9585 323.2097 16.31722938148130
Epoch: 2026-03-07T09:40Z
TLE epoch observation values (Epoch: 2026-03-07T09:40:08.664Z)
Latitude
Longitude
-161.03003°
Altitude
181.616 km
Speed
7.803 km/s
True Right ascension
09h 56m 31s
True Declination
0° 00' 00"
Sunlit
Object was in full shadow at epoch
Visualization orbit readout
Latitude
Unknown
Longitude
Unknown
Altitude
Unknown
Speed
Unknown
Apparent Right ascension
Unknown
Apparent Declination
Unknown
Sunlit
N/A
Visualization observer readout
Local Sidereal Time
13:31:19
Azimuth
Unknown
Elevation
Unknown
Doppler factor
Unknown
Orbital elements
Apogee altitude
197.525 km
Perigee altitude
182.379 km
Semi-major axis
6,568.089 km
Eccentricity
0.00115
Inclination
42.9626°
RAAN
149.1311°
Arg. of periapsis
36.9585°
True anomaly
323.13048°
Mean anomaly
323.2097°
Eccentric anomaly
323.1701°
Mean motion
4.07741 °/min
Orbital period
88.29 mins
BSTAR
0.0023127
Loading maneuver chart data...
Computing Atmospheric mass density...

Documentation

Showing up to 5 results
|